Time,TemperatureF,DewpointF,PressureIn,WindDirection,WindDirectionDegrees,WindSpeedMPH,WindSpeedGustMPH,Humidity,HourlyPrecipIn,Conditions,Clouds,dailyrainin,SoftwareType,DateUTC
2013-08-27 00:01:00,69.8,61.2,30.13,South,181,1.1,1.1,74,0.00,CLR,SCT,0.00,WeatherDisplay:10.37,2013-08-27 04:01:00,
2013-08-27 00:06:00,69.7,61.5,30.12,South,181,0.0,0.0,75,0.00,CLR,SCT,0.00,WeatherDisplay:10.37,2013-08-27 04:06:00,
2013-08-27 00:11:00,69.4,61.2,30.12,South,181,0.0,0.0,75,0.00,CLR,SCT,0.00,WeatherDisplay:10.37,2013-08-27 04:11:00,
2013-08-27 00:16:00,69.6,61.4,30.12,SW,236,1.1,0.0,75,0.00,CLR,SCT,0.00,WeatherDisplay:10.37,2013-08-27 04:16:00,
2013-08-27 00:21:00,69.6,61.4,30.12,SW,236,0.0,0.0,75,0.00,CLR,SCT,0.00,WeatherDisplay:10.37,2013-08-27 04:21:00,
2013-08-27 00:26:00,69.6,61.7,30.11,SW,236,0.0,0.0,76,0.00,CLR,SCT,0.00,WeatherDisplay:10.37,2013-08-27 04:26:00,
2013-08-27 00:31:00,69.6,61.7,30.11,SW,236,0.0,0.0,76,0.00,CLR,SCT,0.00,WeatherDisplay:10.37,2013-08-27 04:31:00,
2013-08-27 00:36:00,69.4,61.5,30.11,SW,236,0.0,0.0,76,0.00,CLR,SCT,0.00,WeatherDisplay:10.37,2013-08-27 04:36:00,
2013-08-27 00:41:00,69.3,61.4,30.11,SW,236,0.0,0.0,76,0.00,CLR,SCT,0.00,WeatherDisplay:10.37,2013-08-27 04:41:00,
2013-08-27 00:46:00,69.2,61.3,30.11,SW,236,0.0,0.0,76,0.00,CLR,SCT,0.00,WeatherDisplay:10.37,2013-08-27 04:46:00,
2013-08-27 00:51:00,69.3,61.4,30.11,SW,236,0.0,0.0,76,0.00,CLR,SCT,0.00,WeatherDisplay:10.37,2013-08-27 04:51:00,
2013-08-27 00:56:00,69.8,61.9,30.11,SW,236,0.0,0.0,76,0.00,CLR,SCT,0.00,WeatherDisplay:10.37,2013-08-27 04:56:00,
2013-08-27 01:01:00,69.7,62.2,30.11,SW,236,0.0,0.0,77,0.00,CLR,SCT,0.00,WeatherDisplay:10.37,2013-08-27 05:01:00,
2013-08-27 01:06:00,69.8,62.3,30.11,SW,236,0.0,0.0,77,0.00,CLR,SCT,0.00,WeatherDisplay:10.37,2013-08-27 05:06:00,
2013-08-27 01:11:00,69.6,62.1,30.11,SW,236,0.0,0.0,77,0.00,CLR,SCT,0.00,WeatherDisplay:10.37,2013-08-27 05:11:00,
2013-08-27 01:16:00,69.4,61.9,30.11,SW,236,0.0,0.0,77,0.00,CLR,SCT,0.00,WeatherDisplay:10.37,2013-08-27 05:16:00,
2013-08-27 01:21:00,69.5,62.0,30.11,East,88,2.3,2.3,77,0.00,CLR,SCT,0.00,WeatherDisplay:10.37,2013-08-27 05:21:00,
2013-08-27 01:26:00,69.5,62.4,30.11,ENE,59,0.0,0.0,78,0.00,CLR,SCT,0.00,WeatherDisplay:10.37,2013-08-27 05:26:00,
2013-08-27 01:31:00,69.4,62.3,30.11,ENE,59,0.0,0.0,78,0.00,CLR,SCT,0.00,WeatherDisplay:10.37,2013-08-27 05:31:00,
2013-08-27 01:36:00,69.3,62.2,30.11,East,93,3.0,3.0,78,0.00,CLR,SCT,0.00,WeatherDisplay:10.37,2013-08-27 05:36:00,
2013-08-27 01:41:00,69.0,62.3,30.11,East,90,3.5,3.5,79,0.00,CLR,SCT,0.00,WeatherDisplay:10.37,2013-08-27 05:41:00,
2013-08-27 01:46:00,68.8,62.4,30.11,East,89,2.3,2.3,80,0.00,CLR,SCT,0.00,WeatherDisplay:10.37,2013-08-27 05:46:00,
2013-08-27 01:51:00,68.7,62.3,30.11,East,85,2.3,2.3,80,0.00,CLR,SCT,0.00,WeatherDisplay:10.37,2013-08-27 05:51:00,
2013-08-27 01:56:00,68.6,62.6,30.10,East,80,1.1,1.1,81,0.00,CLR,SCT,0.00,WeatherDisplay:10.37,2013-08-27 05:56:00,
2013-08-27 02:01:00,68.7,62.7,30.10,East,80,0.0,0.0,81,0.00,CLR,SCT,0.00,WeatherDisplay:10.37,2013-08-27 06:01:00,
2013-08-27 02:06:00,68.6,62.6,30.10,East,80,0.0,0.0,81,0.00,CLR,SCT,0.00,WeatherDisplay:10.37,2013-08-27 06:06:00,
2013-08-27 02:11:00,68.7,62.7,30.10,East,80,0.0,0.0,81,0.00,CLR,SCT,0.00,WeatherDisplay:10.37,2013-08-27 06:11:00,
2013-08-27 02:16:00,68.7,62.7,30.09,East,80,0.0,0.0,81,0.00,CLR,SCT,0.00,WeatherDisplay:10.37,2013-08-27 06:16:00,
2013-08-27 02:21:00,68.7,63.0,30.09,East,80,0.0,0.0,82,0.00,CLR,SCT,0.00,WeatherDisplay:10.37,2013-08-27 06:21:00,
2013-08-27 02:26:00,68.6,62.9,30.09,East,80,0.0,0.0,82,0.00,CLR,SCT,0.00,WeatherDisplay:10.37,2013-08-27 06:26:00,
2013-08-27 02:31:00,68.7,62.7,30.09,East,80,0.0,0.0,81,0.00,CLR,SCT,0.00,WeatherDisplay:10.37,2013-08-27 06:31:00,
2013-08-27 02:36:00,68.9,62.9,30.09,East,80,0.0,0.0,81,0.00,CLR,SCT,0.00,WeatherDisplay:10.37,2013-08-27 06:36:00,
2013-08-27 02:41:00,68.9,62.9,30.09,NE,47,0.0,0.0,81,0.00,CLR,SCT,0.00,WeatherDisplay:10.37,2013-08-27 06:41:00,
2013-08-27 02:46:00,68.8,63.1,30.09,ENE,64,2.3,2.3,82,0.00,CLR,SCT,0.00,WeatherDisplay:10.37,2013-08-27 06:46:00,
2013-08-27 02:51:00,68.6,62.9,30.09,ENE,69,0.0,0.0,82,0.00,CLR,SCT,0.00,WeatherDisplay:10.37,2013-08-27 06:51:00,
2013-08-27 02:56:00,68.5,62.8,30.09,ENE,69,0.0,0.0,82,0.00,CLR,SCT,0.00,WeatherDisplay:10.37,2013-08-27 06:56:00,
2013-08-27 03:01:00,68.4,62.7,30.09,ENE,69,0.0,0.0,82,0.00,CLR,SCT,0.00,WeatherDisplay:10.37,2013-08-27 07:01:00,
2013-08-27 03:06:00,68.1,62.4,30.09,ENE,69,0.0,0.0,82,0.00,CLR,SCT,0.00,WeatherDisplay:10.37,2013-08-27 07:06:00,
2013-08-27 03:11:00,68.0,62.7,30.09,ENE,69,0.0,0.0,83,0.00,CLR,SCT,0.00,WeatherDisplay:10.37,2013-08-27 07:11:00,
2013-08-27 03:16:00,68.0,62.7,30.09,East,85,2.1,2.1,83,0.00,CLR,SCT,0.00,WeatherDisplay:10.37,2013-08-27 07:16:00,
2013-08-27 03:21:00,67.9,62.6,30.09,ENE,62,2.3,2.3,83,0.00,CLR,SCT,0.00,WeatherDisplay:10.37,2013-08-27 07:21:00,
2013-08-27 03:27:00,67.9,62.6,30.08,East,95,3.5,3.5,83,0.00,CLR,SCT,0.00,WeatherDisplay:10.37,2013-08-27 07:27:00,
2013-08-27 03:32:00,67.8,62.8,30.08,ENE,68,3.5,3.5,84,0.00,CLR,SCT,0.00,WeatherDisplay:10.37,2013-08-27 07:32:00,
2013-08-27 03:37:00,67.8,62.8,30.08,ENE,75,2.3,2.5,84,0.00,CLR,SCT,0.00,WeatherDisplay:10.37,2013-08-27 07:37:00,
2013-08-27 03:42:00,67.8,62.8,30.08,East,79,2.7,2.7,84,0.00,CLR,SCT,0.00,WeatherDisplay:10.37,2013-08-27 07:42:00,
2013-08-27 03:47:00,67.8,62.8,30.08,East,82,3.5,3.5,84,0.00,CLR,SCT,0.00,WeatherDisplay:10.37,2013-08-27 07:47:00,
2013-08-27 03:52:00,67.6,62.6,30.09,ENE,66,2.3,0.0,84,0.00,CLR,SCT,0.00,WeatherDisplay:10.37,2013-08-27 07:52:00,
2013-08-27 03:57:00,67.6,62.6,30.09,ENE,66,0.0,0.0,84,0.00,CLR,SCT,0.00,WeatherDisplay:10.37,2013-08-27 07:57:00,
2013-08-27 04:02:00,67.7,62.7,30.09,East,86,2.3,2.3,84,0.00,CLR,SCT,0.00,WeatherDisplay:10.37,2013-08-27 08:02:00,
2013-08-27 04:07:00,67.5,62.5,30.09,ENE,71,1.1,1.1,84,0.00,CLR,SCT,0.00,WeatherDisplay:10.37,2013-08-27 08:07:00,
2013-08-27 04:12:00,67.5,62.5,30.08,ENE,69,2.3,2.3,84,0.00,CLR,SCT,0.00,WeatherDisplay:10.37,2013-08-27 08:12:00,
2013-08-27 04:17:00,67.4,62.8,30.08,ENE,69,0.0,0.0,85,0.00,CLR,SCT,0.00,WeatherDisplay:10.37,2013-08-27 08:17:00,
2013-08-27 04:22:00,67.4,62.8,30.08,ENE,69,0.0,0.0,85,0.00,CLR,SCT,0.00,WeatherDisplay:10.37,2013-08-27 08:22:00,
2013-08-27 04:27:00,67.3,62.7,30.08,ENE,66,2.3,2.3,85,0.00,CLR,SCT,0.00,WeatherDisplay:10.37,2013-08-27 08:27:00,
2013-08-27 04:32:00,67.2,62.6,30.08,ENE,66,0.0,0.0,85,0.00,CLR,SCT,0.00,WeatherDisplay:10.37,2013-08-27 08:32:00,
2013-08-27 04:37:00,67.2,62.6,30.08,ENE,62,2.3,2.3,85,0.00,CLR,SCT,0.00,WeatherDisplay:10.37,2013-08-27 08:37:00,
2013-08-27 04:42:00,67.4,62.8,30.08,ENE,62,0.0,0.0,85,0.00,CLR,SCT,0.00,WeatherDisplay:10.37,2013-08-27 08:42:00,
2013-08-27 04:47:00,67.4,62.8,30.08,ENE,62,0.0,0.0,85,0.00,CLR,SCT,0.00,WeatherDisplay:10.37,2013-08-27 08:47:00,
2013-08-27 04:52:00,67.5,62.9,30.08,ENE,62,0.0,0.0,85,0.00,CLR,SCT,0.00,WeatherDisplay:10.37,2013-08-27 08:52:00,
2013-08-27 04:57:00,67.5,62.9,30.07,ENE,62,0.0,0.0,85,0.00,CLR,SCT,0.00,WeatherDisplay:10.37,2013-08-27 08:57:00,
2013-08-27 05:02:00,67.7,63.1,30.07,ENE,62,0.0,0.0,85,0.00,CLR,SCT,0.00,WeatherDisplay:10.37,2013-08-27 09:02:00,
2013-08-27 05:07:00,67.8,63.2,30.07,NE,37,0.0,0.0,85,0.00,CLR,SCT,0.00,WeatherDisplay:10.37,2013-08-27 09:07:00,
2013-08-27 05:12:00,68.0,63.4,30.07,NE,37,0.0,0.0,85,0.00,CLR,SCT,0.00,WeatherDisplay:10.37,2013-08-27 09:12:00,
2013-08-27 05:17:00,68.1,63.5,30.07,NE,37,0.0,0.0,85,0.00,CLR,SCT,0.00,WeatherDisplay:10.37,2013-08-27 09:17:00,
2013-08-27 05:22:00,68.2,63.6,30.07,NE,37,0.0,0.0,85,0.00,CLR,SCT,0.00,WeatherDisplay:10.37,2013-08-27 09:22:00,
2013-08-27 05:27:00,68.3,63.3,30.07,East,80,0.0,0.0,84,0.00,CLR,SCT,0.00,WeatherDisplay:10.37,2013-08-27 09:27:00,
2013-08-27 05:32:00,68.4,63.4,30.07,ENE,68,3.5,3.5,84,0.00,CLR,SCT,0.00,WeatherDisplay:10.37,2013-08-27 09:32:00,
2013-08-27 05:37:00,68.4,63.4,30.07,ESE,114,0.0,0.0,84,0.00,CLR,SCT,0.00,WeatherDisplay:10.37,2013-08-27 09:37:00,
2013-08-27 05:42:00,68.4,63.4,30.08,NNE,23,1.1,1.1,84,0.00,CLR,SCT,0.00,WeatherDisplay:10.37,2013-08-27 09:42:00,
2013-08-27 05:47:00,68.3,63.3,30.07,NNE,23,0.0,0.0,84,0.00,CLR,SCT,0.00,WeatherDisplay:10.37,2013-08-27 09:47:00,
2013-08-27 05:52:00,68.3,63.3,30.08,NNE,23,0.0,0.0,84,0.00,CLR,SCT,0.00,WeatherDisplay:10.37,2013-08-27 09:52:00,
2013-08-27 05:57:00,68.3,63.3,30.07,NNE,23,0.0,0.0,84,0.00,CLR,SCT,0.00,WeatherDisplay:10.37,2013-08-27 09:57:00,
2013-08-27 06:02:00,68.3,63.7,30.08,NNE,23,0.0,0.0,85,0.00,CLR,SCT,0.00,WeatherDisplay:10.37,2013-08-27 10:02:00,
2013-08-27 06:07:00,68.1,63.5,30.08,NNE,23,0.0,0.0,85,0.00,CLR,SCT,0.00,WeatherDisplay:10.37,2013-08-27 10:07:00,
2013-08-27 06:12:00,68.1,63.5,30.08,NNE,23,0.0,0.0,85,0.00,CLR,SCT,0.00,WeatherDisplay:10.37,2013-08-27 10:12:00,
2013-08-27 06:17:00,67.7,63.1,30.08,NNE,23,0.0,0.0,85,0.00,CLR,SCT,0.00,WeatherDisplay:10.37,2013-08-27 10:17:00,
2013-08-27 06:22:00,67.8,63.2,30.08,ENE,75,1.1,0.0,85,0.00,CLR,SCT,0.00,WeatherDisplay:10.37,2013-08-27 10:22:00,
2013-08-27 06:27:00,67.9,63.6,30.08,East,80,0.0,0.0,86,0.00,CLR,SCT,0.00,WeatherDisplay:10.37,2013-08-27 10:27:00,
2013-08-27 06:32:00,67.8,63.5,30.08,North,350,0.0,0.0,86,0.00,CLR,SCT,0.00,WeatherDisplay:10.37,2013-08-27 10:32:00,
2013-08-27 06:37:00,67.7,63.4,30.08,North,350,0.0,0.0,86,0.00,CLR,SCT,0.00,WeatherDisplay:10.37,2013-08-27 10:37:00,
2013-08-27 06:42:00,67.8,63.5,30.09,ENE,61,0.0,0.0,86,0.00,CLR,SCT,0.00,WeatherDisplay:10.37,2013-08-27 10:42:00,
2013-08-27 06:47:00,67.6,63.3,30.09,ENE,61,0.0,0.0,86,0.00,CLR,SCT,0.00,WeatherDisplay:10.37,2013-08-27 10:47:00,
2013-08-27 06:52:00,67.9,63.6,30.09,NNW,335,0.0,0.0,86,0.00,CLR,SCT,0.00,WeatherDisplay:10.37,2013-08-27 10:52:00,
2013-08-27 06:57:00,67.8,63.5,30.09,NE,54,1.1,1.1,86,0.00,CLR,SCT,0.00,WeatherDisplay:10.37,2013-08-27 10:57:00,
2013-08-27 07:02:00,68.0,63.7,30.09,ENE,72,0.0,0.0,86,0.00,CLR,SCT,0.00,WeatherDisplay:10.37,2013-08-27 11:02:00,
2013-08-27 07:07:00,68.1,63.8,30.09,NE,48,0.0,0.0,86,0.00,CLR,SCT,0.00,WeatherDisplay:10.37,2013-08-27 11:07:00,
2013-08-27 07:12:00,68.2,63.9,30.09,NE,48,0.0,0.0,86,0.00,CLR,SCT,0.00,WeatherDisplay:10.37,2013-08-27 11:12:00,
2013-08-27 07:17:00,68.2,63.9,30.09,WNW,287,0.0,0.0,86,0.00,CLR,SCT,0.00,WeatherDisplay:10.37,2013-08-27 11:17:00,
2013-08-27 07:22:00,68.1,63.8,30.09,ENE,75,0.0,0.0,86,0.00,CLR,SCT,0.00,WeatherDisplay:10.37,2013-08-27 11:22:00,
2013-08-27 07:27:00,68.4,64.1,30.08,North,354,0.0,0.0,86,0.00,CLR,SCT,0.00,WeatherDisplay:10.37,2013-08-27 11:27:00,
2013-08-27 07:32:00,68.6,64.3,30.09,North,354,0.0,0.0,86,0.00,CLR,SCT,0.00,WeatherDisplay:10.37,2013-08-27 11:32:00,
2013-08-27 07:37:00,68.7,64.4,30.09,North,354,0.0,0.0,86,0.00,CLR,SCT,0.00,WeatherDisplay:10.37,2013-08-27 11:37:00,
2013-08-27 07:42:00,68.7,64.4,30.08,North,354,0.0,0.0,86,0.00,CLR,SCT,0.00,WeatherDisplay:10.37,2013-08-27 11:42:00,
2013-08-27 07:47:00,68.8,64.5,30.09,North,354,0.0,0.0,86,0.00,CLR,SCT,0.00,WeatherDisplay:10.37,2013-08-27 11:47:00,
2013-08-27 07:52:00,68.9,64.6,30.08,NE,54,0.5,0.5,86,0.00,CLR,SCT,0.00,WeatherDisplay:10.37,2013-08-27 11:52:00,
2013-08-27 07:57:00,69.0,64.7,30.08,NE,38,1.1,1.1,86,0.00,CLR,SCT,0.00,WeatherDisplay:10.37,2013-08-27 11:57:00,
2013-08-27 08:02:00,69.0,64.7,30.08,NE,38,0.0,0.0,86,0.00,FEW,SCT,0.00,WeatherDisplay:10.37,2013-08-27 12:02:00,
2013-08-27 08:07:00,69.4,65.1,30.08,ENE,64,2.3,2.3,86,0.00,FEW,SCT,0.00,WeatherDisplay:10.37,2013-08-27 12:07:00,
2013-08-27 08:12:00,69.6,65.3,30.08,NE,49,0.0,0.0,86,0.00,FEW,SCT,0.00,WeatherDisplay:10.37,2013-08-27 12:12:00,
2013-08-27 08:17:00,69.7,65.4,30.08,ENE,59,2.3,2.3,86,0.00,FEW,SCT,0.00,WeatherDisplay:10.37,2013-08-27 12:17:00,
2013-08-27 08:22:00,70.1,65.8,30.08,ENE,59,0.0,0.0,86,0.00,FEW,SCT,0.00,WeatherDisplay:10.37,2013-08-27 12:22:00,
2013-08-27 08:27:00,70.1,65.4,30.08,ENE,59,0.0,0.0,85,0.00,FEW,SCT,0.00,WeatherDisplay:10.37,2013-08-27 12:27:00,
2013-08-27 08:32:00,70.2,65.5,30.08,ESE,106,4.6,4.6,85,0.00,FEW,SCT,0.00,WeatherDisplay:10.37,2013-08-27 12:32:00,
2013-08-27 08:37:00,70.3,65.6,30.08,NE,56,0.0,0.0,85,0.00,FEW,SCT,0.00,WeatherDisplay:10.37,2013-08-27 12:37:00,
2013-08-27 08:42:00,70.3,66.0,30.08,WNW,288,3.5,3.5,86,0.00,FEW,SCT,0.00,WeatherDisplay:10.37,2013-08-27 12:42:00,
2013-08-27 08:47:00,70.7,66.0,30.08,NNE,27,0.0,0.0,85,0.00,FEW,SCT,0.00,WeatherDisplay:10.37,2013-08-27 12:47:00,
2013-08-27 08:52:00,71.0,66.3,30.08,East,92,2.3,2.3,85,0.00,FEW,SCT,0.00,WeatherDisplay:10.37,2013-08-27 12:52:00,
2013-08-27 08:57:00,71.4,66.4,30.08,NE,55,0.0,0.0,84,0.00,FEW,SCT,0.00,WeatherDisplay:10.37,2013-08-27 12:57:00,
2013-08-27 09:02:00,71.3,66.3,30.08,ESE,120,1.1,1.1,84,0.00,FEW,SCT,0.00,WeatherDisplay:10.37,2013-08-27 13:02:00,
2013-08-27 09:07:00,71.7,66.6,30.09,NNE,21,3.5,3.5,84,0.00,FEW,SCT,0.00,WeatherDisplay:10.37,2013-08-27 13:07:00,
2013-08-27 09:12:00,72.0,66.6,30.09,SE,136,3.5,3.5,83,0.00,FEW,SCT,0.00,WeatherDisplay:10.37,2013-08-27 13:12:00,
2013-08-27 09:17:00,72.2,66.8,30.09,ENE,73,4.6,4.6,83,0.00,FEW,SCT,0.00,WeatherDisplay:10.37,2013-08-27 13:17:00,
2013-08-27 09:22:00,72.3,66.9,30.09,ESE,109,2.7,2.7,83,0.00,FEW,SCT,0.00,WeatherDisplay:10.37,2013-08-27 13:22:00,
2013-08-27 09:27:00,72.5,66.7,30.08,East,85,1.1,1.1,82,0.00,FEW,SCT,0.00,WeatherDisplay:10.37,2013-08-27 13:27:00,
2013-08-27 09:32:00,72.7,66.9,30.08,WNW,299,3.5,3.5,82,0.00,FEW,SCT,0.00,WeatherDisplay:10.37,2013-08-27 13:32:00,
2013-08-27 09:37:00,72.9,66.8,30.08,East,85,1.1,1.1,81,0.00,FEW,SCT,0.00,WeatherDisplay:10.37,2013-08-27 13:37:00,
2013-08-27 09:42:00,73.1,67.0,30.08,ENE,59,6.9,6.9,81,0.00,FEW,SCT,0.00,WeatherDisplay:10.37,2013-08-27 13:42:00,
2013-08-27 09:47:00,73.3,67.2,30.08,ENE,59,3.5,3.5,81,0.00,FEW,SCT,0.00,WeatherDisplay:10.37,2013-08-27 13:47:00,
2013-08-27 09:52:00,73.6,67.4,30.08,East,79,0.8,0.0,81,0.00,FEW,SCT,0.00,WeatherDisplay:10.37,2013-08-27 13:52:00,
2013-08-27 09:57:00,74.0,67.5,30.08,NNW,346,1.1,1.1,80,0.00,FEW,SCT,0.00,WeatherDisplay:10.37,2013-08-27 13:57:00,
2013-08-27 10:02:00,74.2,67.7,30.08,ESE,107,4.6,4.6,80,0.00,FEW,SCT,0.00,WeatherDisplay:10.37,2013-08-27 14:02:00,
2013-08-27 10:07:00,74.5,67.6,30.09,ESE,102,5.8,5.8,79,0.00,FEW,SCT,0.00,WeatherDisplay:10.37,2013-08-27 14:07:00,
2013-08-27 10:12:00,74.9,67.6,30.08,NE,34,2.3,2.3,78,0.00,FEW,SCT,0.00,WeatherDisplay:10.37,2013-08-27 14:12:00,
2013-08-27 10:17:00,75.2,67.5,30.08,North,360,2.3,2.3,77,0.00,FEW,SCT,0.00,WeatherDisplay:10.37,2013-08-27 14:17:00,
2013-08-27 10:22:00,75.7,68.0,30.08,East,83,0.0,0.0,77,0.00,FEW,SCT,0.00,WeatherDisplay:10.37,2013-08-27 14:22:00,
2013-08-27 10:27:00,76.1,68.4,30.08,ENE,73,4.6,4.6,77,0.00,FEW,SCT,0.00,WeatherDisplay:10.37,2013-08-27 14:27:00,
2013-08-27 10:32:00,76.6,68.5,30.08,East,82,2.3,2.3,76,0.00,FEW,SCT,0.00,WeatherDisplay:10.37,2013-08-27 14:32:00,
2013-08-27 10:37:00,76.9,68.4,30.08,NNW,329,4.6,4.6,75,0.00,FEW,SCT,0.00,WeatherDisplay:10.37,2013-08-27 14:37:00,
2013-08-27 10:42:00,77.5,68.6,30.08,SE,127,4.6,4.6,74,0.00,FEW,SCT,0.00,WeatherDisplay:10.37,2013-08-27 14:42:00,
2013-08-27 10:47:00,77.7,68.8,30.08,NW,309,5.8,5.8,74,0.00,FEW,SCT,0.00,WeatherDisplay:10.37,2013-08-27 14:47:00,
2013-08-27 10:52:00,78.0,68.7,30.08,East,80,3.5,3.5,73,0.00,FEW,SCT,0.00,WeatherDisplay:10.37,2013-08-27 14:52:00,
2013-08-27 10:57:00,78.4,69.1,30.08,SW,215,2.5,0.0,73,0.00,FEW,SCT,0.00,WeatherDisplay:10.37,2013-08-27 14:57:00,
2013-08-27 11:02:00,79.0,69.6,30.08,East,89,3.5,3.5,73,0.00,FEW,SCT,0.00,WeatherDisplay:10.37,2013-08-27 15:02:00,
2013-08-27 11:07:00,79.2,69.0,30.08,SSE,158,2.3,2.3,71,0.00,FEW,SCT,0.00,WeatherDisplay:10.37,2013-08-27 15:07:00,
2013-08-27 11:12:00,79.6,69.4,30.08,East,89,1.1,1.1,71,0.00,FEW,SCT,0.00,WeatherDisplay:10.37,2013-08-27 15:12:00,
2013-08-27 11:17:00,80.1,69.9,30.08,SW,229,1.1,1.1,71,0.00,FEW,SCT,0.00,WeatherDisplay:10.37,2013-08-27 15:17:00,
2013-08-27 11:22:00,80.2,69.1,30.08,SSE,151,2.3,2.3,69,0.00,FEW,SCT,0.00,WeatherDisplay:10.37,2013-08-27 15:22:00,
2013-08-27 11:27:00,80.7,69.6,30.08,ESE,112,3.5,3.5,69,0.00,FEW,SCT,0.00,WeatherDisplay:10.37,2013-08-27 15:27:00,
2013-08-27 11:32:00,80.8,70.1,30.08,NE,49,3.5,3.5,70,0.00,FEW,SCT,0.00,WeatherDisplay:10.37,2013-08-27 15:32:00,
2013-08-27 11:37:00,81.1,69.6,30.08,ENE,76,0.0,0.0,68,0.00,FEW,SCT,0.00,WeatherDisplay:10.37,2013-08-27 15:37:00,
2013-08-27 11:42:00,81.1,69.6,30.08,SE,143,1.3,1.3,68,0.00,FEW,SCT,0.00,WeatherDisplay:10.37,2013-08-27 15:42:00,
2013-08-27 11:47:00,81.2,69.7,30.08,East,86,2.3,2.3,68,0.00,FEW,SCT,0.00,WeatherDisplay:10.37,2013-08-27 15:47:00,
2013-08-27 11:52:00,81.2,69.7,30.08,SE,143,1.1,1.1,68,0.00,FEW,SCT,0.00,WeatherDisplay:10.37,2013-08-27 15:52:00,
2013-08-27 11:57:00,81.5,70.0,30.08,South,184,1.1,1.1,68,0.00,FEW,SCT,0.00,WeatherDisplay:10.37,2013-08-27 15:57:00,
2013-08-27 12:02:00,81.9,70.3,30.08,ESE,109,2.3,2.3,68,0.00,FEW,SCT,0.00,WeatherDisplay:10.37,2013-08-27 16:02:00,
2013-08-27 12:07:00,82.4,70.4,30.08,East,95,2.7,2.7,67,0.00,FEW,SCT,0.00,WeatherDisplay:10.37,2013-08-27 16:07:00,
2013-08-27 12:12:00,82.9,70.9,30.08,East,86,4.6,4.6,67,0.00,FEW,SCT,0.00,WeatherDisplay:10.37,2013-08-27 16:12:00,
2013-08-27 12:17:00,83.2,70.2,30.08,WNW,292,2.3,2.3,65,0.00,FEW,SCT,0.00,WeatherDisplay:10.37,2013-08-27 16:17:00,
2013-08-27 12:22:00,83.5,70.5,30.08,ESE,116,3.5,3.5,65,0.00,FEW,SCT,0.00,WeatherDisplay:10.37,2013-08-27 16:22:00,
2013-08-27 12:27:00,83.9,70.0,30.08,East,89,4.6,4.6,63,0.00,FEW,SCT,0.00,WeatherDisplay:10.37,2013-08-27 16:27:00,
2013-08-27 12:32:00,83.8,70.4,30.07,ENE,65,0.8,1.1,64,0.00,FEW,SCT,0.00,WeatherDisplay:10.37,2013-08-27 16:32:00,
2013-08-27 12:37:00,83.9,70.0,30.08,NE,55,1.1,1.1,63,0.00,FEW,SCT,0.00,WeatherDisplay:10.37,2013-08-27 16:37:00,
2013-08-27 12:42:00,83.5,69.6,30.08,ESE,109,2.3,2.3,63,0.00,FEW,SCT,0.00,WeatherDisplay:10.37,2013-08-27 16:42:00,
2013-08-27 12:47:00,83.1,69.2,30.08,East,97,1.8,1.8,63,0.00,FEW,SCT,0.00,WeatherDisplay:10.37,2013-08-27 16:47:00,
2013-08-27 12:52:00,82.8,69.4,30.08,East,86,3.5,3.5,64,0.00,FEW,SCT,0.00,WeatherDisplay:10.37,2013-08-27 16:52:00,
2013-08-27 12:57:00,82.8,69.4,30.08,East,86,1.1,1.1,64,0.00,FEW,SCT,0.00,WeatherDisplay:10.37,2013-08-27 16:57:00,
2013-08-27 13:02:00,83.1,69.7,30.08,East,82,1.3,1.3,64,0.00,SCT,,0.00,WeatherDisplay:10.37,2013-08-27 17:02:00,
2013-08-27 13:07:00,83.6,69.7,30.08,North,3,4.6,4.6,63,0.00,SCT,,0.00,WeatherDisplay:10.37,2013-08-27 17:07:00,
2013-08-27 13:12:00,83.9,69.5,30.07,SSE,158,1.1,1.1,62,0.00,SCT,,0.00,WeatherDisplay:10.37,2013-08-27 17:12:00,
2013-08-27 13:17:00,84.1,69.7,30.07,NNE,23,0.0,0.0,62,0.00,SCT,,0.00,WeatherDisplay:10.37,2013-08-27 17:17:00,
2013-08-27 13:22:00,84.2,68.8,30.07,SW,223,2.5,2.5,60,0.00,SCT,,0.00,WeatherDisplay:10.37,2013-08-27 17:22:00,
2013-08-27 13:27:00,84.3,68.9,30.07,West,281,1.1,0.0,60,0.00,SCT,,0.00,WeatherDisplay:10.37,2013-08-27 17:27:00,
2013-08-27 13:32:00,84.3,68.9,30.06,ENE,61,1.1,0.0,60,0.00,SCT,,0.00,WeatherDisplay:10.37,2013-08-27 17:32:00,
2013-08-27 13:37:00,84.2,69.3,30.06,SSE,152,2.3,2.3,61,0.00,SCT,,0.00,WeatherDisplay:10.37,2013-08-27 17:37:00,
2013-08-27 13:42:00,84.2,68.8,30.06,NW,305,2.3,2.3,60,0.00,SCT,,0.00,WeatherDisplay:10.37,2013-08-27 17:42:00,
2013-08-27 13:47:00,84.3,69.4,30.06,SW,219,1.2,1.2,61,0.00,SCT,,0.00,WeatherDisplay:10.37,2013-08-27 17:47:00,
2013-08-27 13:52:00,84.3,69.9,30.05,North,1,2.3,2.3,62,0.00,SCT,,0.00,WeatherDisplay:10.37,2013-08-27 17:52:00,
2013-08-27 13:57:00,84.7,69.3,30.05,East,93,1.4,1.4,60,0.00,SCT,,0.00,WeatherDisplay:10.37,2013-08-27 17:57:00,
2013-08-27 14:02:00,84.8,68.4,30.05,South,184,5.8,5.8,58,0.00,SCT,,0.00,WeatherDisplay:10.37,2013-08-27 18:02:00,
2013-08-27 14:08:00,84.8,69.4,30.05,East,80,3.5,0.0,60,0.00,SCT,,0.00,WeatherDisplay:10.37,2013-08-27 18:08:00,
2013-08-27 14:13:00,84.6,69.2,30.05,East,89,3.5,3.5,60,0.00,SCT,,0.00,WeatherDisplay:10.37,2013-08-27 18:13:00,
2013-08-27 14:18:00,84.4,68.5,30.05,NE,41,1.1,0.0,59,0.00,SCT,,0.00,WeatherDisplay:10.37,2013-08-27 18:18:00,
2013-08-27 14:23:00,84.3,68.4,30.05,SSE,157,4.6,4.6,59,0.00,SCT,,0.00,WeatherDisplay:10.37,2013-08-27 18:23:00,
2013-08-27 14:28:00,84.2,68.8,30.05,NE,56,2.3,2.3,60,0.00,SCT,,0.00,WeatherDisplay:10.37,2013-08-27 18:28:00,
2013-08-27 14:33:00,84.0,69.1,30.05,West,265,0.0,1.0,61,0.00,SCT,,0.00,WeatherDisplay:10.37,2013-08-27 18:33:00,
2013-08-27 14:38:00,84.0,69.6,30.05,ENE,78,2.3,0.0,62,0.00,SCT,,0.00,WeatherDisplay:10.37,2013-08-27 18:38:00,
2013-08-27 14:43:00,83.9,68.6,30.05,NE,45,1.0,1.0,60,0.00,SCT,,0.00,WeatherDisplay:10.37,2013-08-27 18:43:00,
2013-08-27 14:48:00,83.7,68.9,30.05,North,350,0.0,0.0,61,0.00,SCT,,0.00,WeatherDisplay:10.37,2013-08-27 18:48:00,
2013-08-27 14:53:00,83.5,68.2,30.04,NW,316,8.1,8.1,60,0.00,SCT,,0.00,WeatherDisplay:10.37,2013-08-27 18:53:00,
2013-08-27 14:58:00,83.3,69.0,30.04,East,99,0.0,0.0,62,0.00,SCT,,0.00,WeatherDisplay:10.37,2013-08-27 18:58:00,
2013-08-27 15:03:00,83.2,68.9,30.04,East,96,2.9,2.9,62,0.00,SCT,,0.00,WeatherDisplay:10.37,2013-08-27 19:03:00,
2013-08-27 15:08:00,83.1,68.3,30.04,NNW,347,0.3,0.6,61,0.00,SCT,,0.00,WeatherDisplay:10.37,2013-08-27 19:08:00,
2013-08-27 15:13:00,83.1,68.3,30.03,ESE,123,2.3,2.3,61,0.00,SCT,,0.00,WeatherDisplay:10.37,2013-08-27 19:13:00,
2013-08-27 15:18:00,83.4,68.6,30.03,ENE,68,1.1,0.0,61,0.00,SCT,,0.00,WeatherDisplay:10.37,2013-08-27 19:18:00,
2013-08-27 15:23:00,83.6,69.2,30.03,East,97,2.3,2.3,62,0.00,SCT,,0.00,WeatherDisplay:10.37,2013-08-27 19:23:00,
2013-08-27 15:28:00,83.4,68.1,30.03,SSE,157,0.0,0.0,60,0.00,SCT,,0.00,WeatherDisplay:10.37,2013-08-27 19:28:00,
2013-08-27 15:33:00,83.3,68.5,30.03,East,89,0.0,0.2,61,0.00,SCT,,0.00,WeatherDisplay:10.37,2013-08-27 19:33:00,
2013-08-27 15:38:00,83.1,69.7,30.03,South,176,1.1,0.0,64,0.00,SCT,,0.00,WeatherDisplay:10.37,2013-08-27 19:38:00,
2013-08-27 15:43:00,82.7,68.9,30.03,SE,131,1.1,0.0,63,0.00,SCT,,0.00,WeatherDisplay:10.37,2013-08-27 19:43:00,
2013-08-27 15:48:00,82.4,69.0,30.03,East,96,0.0,0.0,64,0.00,SCT,,0.00,WeatherDisplay:10.37,2013-08-27 19:48:00,
2013-08-27 15:53:00,82.3,68.5,30.03,WNW,292,5.8,5.8,63,0.00,SCT,,0.00,WeatherDisplay:10.37,2013-08-27 19:53:00,
2013-08-27 15:58:00,82.2,69.3,30.02,SSW,196,0.0,0.0,65,0.00,SCT,,0.00,WeatherDisplay:10.37,2013-08-27 19:58:00,
2013-08-27 16:03:00,82.3,69.4,30.02,East,83,0.0,0.0,65,0.00,SCT,,0.00,WeatherDisplay:10.37,2013-08-27 20:03:00,
2013-08-27 16:08:00,82.4,69.0,30.02,North,354,0.0,0.1,64,0.00,SCT,,0.00,WeatherDisplay:10.37,2013-08-27 20:08:00,
2013-08-27 16:13:00,82.5,69.1,30.02,East,100,1.1,1.1,64,0.00,SCT,,0.00,WeatherDisplay:10.37,2013-08-27 20:13:00,
2013-08-27 16:18:00,83.0,69.6,30.02,East,83,1.4,0.0,64,0.00,SCT,,0.00,WeatherDisplay:10.37,2013-08-27 20:18:00,
2013-08-27 16:23:00,83.2,70.7,30.02,SE,144,1.1,1.1,66,0.00,SCT,,0.00,WeatherDisplay:10.37,2013-08-27 20:23:00,
2013-08-27 16:28:00,83.3,70.3,30.03,ENE,62,0.0,0.0,65,0.00,SCT,,0.00,WeatherDisplay:10.37,2013-08-27 20:28:00,
2013-08-27 16:33:00,83.4,70.0,30.02,NE,48,0.0,0.0,64,0.00,SCT,,0.00,WeatherDisplay:10.37,2013-08-27 20:33:00,
2013-08-27 16:38:00,83.3,69.9,30.02,SE,143,1.3,1.3,64,0.00,SCT,,0.00,WeatherDisplay:10.37,2013-08-27 20:38:00,
2013-08-27 16:43:00,83.1,69.7,30.02,NE,40,5.8,5.8,64,0.00,SCT,,0.00,WeatherDisplay:10.37,2013-08-27 20:43:00,
2013-08-27 16:48:00,83.1,69.7,30.02,ESE,103,0.0,0.0,64,0.00,SCT,,0.00,WeatherDisplay:10.37,2013-08-27 20:48:00,
2013-08-27 16:53:00,82.8,69.4,30.02,ESE,103,0.0,0.0,64,0.00,SCT,,0.00,WeatherDisplay:10.37,2013-08-27 20:53:00,
2013-08-27 16:58:00,82.6,69.7,30.02,WSW,239,5.8,5.8,65,0.00,SCT,,0.00,WeatherDisplay:10.37,2013-08-27 20:58:00,
2013-08-27 17:03:00,82.3,69.8,30.02,North,353,0.0,0.0,66,0.00,SCT,,0.00,WeatherDisplay:10.37,2013-08-27 21:03:00,
2013-08-27 17:10:00,82.0,70.0,30.02,SE,138,0.0,0.0,67,0.00,SCT,,0.00,WeatherDisplay:10.37,2013-08-27 21:10:00,
2013-08-27 17:21:00,81.6,69.2,30.02,WSW,241,2.3,2.3,66,0.00,SCT,,0.00,WeatherDisplay:10.37,2013-08-27 21:21:00,
2013-08-27 17:32:00,81.7,68.4,30.02,West,271,0.0,0.0,64,0.00,SCT,,0.00,WeatherDisplay:10.37,2013-08-27 21:32:00,
2013-08-27 17:37:00,81.7,68.8,30.02,ENE,71,2.3,2.3,65,0.00,SCT,,0.00,WeatherDisplay:10.37,2013-08-27 21:37:00,
2013-08-27 17:43:00,81.3,68.9,30.02,ENE,71,0.0,0.0,66,0.00,SCT,,0.00,WeatherDisplay:10.37,2013-08-27 21:43:00,
2013-08-27 17:48:00,81.2,68.8,30.02,ENE,71,0.0,0.0,66,0.00,SCT,,0.00,WeatherDisplay:10.37,2013-08-27 21:48:00,
2013-08-27 17:53:00,81.1,69.1,30.02,ENE,71,0.0,0.0,67,0.00,SCT,,0.00,WeatherDisplay:10.37,2013-08-27 21:53:00,
2013-08-27 17:58:00,80.9,68.9,30.02,ENE,71,0.0,0.0,67,0.00,SCT,,0.00,WeatherDisplay:10.37,2013-08-27 21:58:00,
2013-08-27 18:03:00,80.8,68.9,30.01,ENE,71,0.0,0.0,67,0.00,SCT,,0.00,WeatherDisplay:10.37,2013-08-27 22:03:00,
2013-08-27 18:08:00,80.5,68.6,30.01,West,260,1.1,1.1,67,0.00,SCT,,0.00,WeatherDisplay:10.37,2013-08-27 22:08:00,
2013-08-27 18:13:00,80.4,68.0,30.01,South,185,2.3,2.3,66,0.00,SCT,,0.00,WeatherDisplay:10.37,2013-08-27 22:13:00,
2013-08-27 18:18:00,80.4,68.0,30.01,SE,144,0.0,0.2,66,0.00,SCT,,0.00,WeatherDisplay:10.37,2013-08-27 22:18:00,
2013-08-27 18:23:00,80.3,67.9,30.01,ESE,102,2.3,2.3,66,0.00,SCT,,0.00,WeatherDisplay:10.37,2013-08-27 22:23:00,
2013-08-27 18:28:00,80.2,68.3,30.01,NNW,340,0.0,0.0,67,0.00,SCT,,0.00,WeatherDisplay:10.37,2013-08-27 22:28:00,
2013-08-27 18:33:00,80.1,68.6,30.01,South,189,0.0,0.0,68,0.00,SCT,,0.00,WeatherDisplay:10.37,2013-08-27 22:33:00,
2013-08-27 18:38:00,80.2,68.7,30.00,South,189,0.0,0.0,68,0.00,SCT,,0.00,WeatherDisplay:10.37,2013-08-27 22:38:00,
2013-08-27 18:43:00,80.0,68.5,30.00,South,189,0.0,0.0,68,0.00,SCT,,0.00,WeatherDisplay:10.37,2013-08-27 22:43:00,
2013-08-27 18:48:00,79.9,68.0,30.00,South,189,0.0,0.0,67,0.00,SCT,,0.00,WeatherDisplay:10.37,2013-08-27 22:48:00,
2013-08-27 18:53:00,80.1,68.6,30.00,South,189,0.0,0.0,68,0.00,SCT,,0.00,WeatherDisplay:10.37,2013-08-27 22:53:00,
2013-08-27 18:58:00,79.9,68.4,30.00,South,189,0.0,0.0,68,0.00,SCT,,0.00,WeatherDisplay:10.37,2013-08-27 22:58:00,
2013-08-27 19:03:00,79.9,68.4,30.00,South,189,3.1,0.0,68,0.00,BKN,SCT,0.00,WeatherDisplay:10.37,2013-08-27 23:03:00,
2013-08-27 19:08:00,79.8,68.3,30.01,SW,224,2.3,2.3,68,0.00,BKN,SCT,0.00,WeatherDisplay:10.37,2013-08-27 23:08:00,
2013-08-27 19:13:00,79.5,67.6,30.00,South,186,1.1,1.1,67,0.00,BKN,SCT,0.00,WeatherDisplay:10.37,2013-08-27 23:13:00,
2013-08-27 19:18:00,79.3,67.9,30.01,North,354,4.6,4.6,68,0.00,BKN,SCT,0.00,WeatherDisplay:10.37,2013-08-27 23:18:00,
2013-08-27 19:23:00,79.2,67.8,30.01,SSE,148,0.0,0.0,68,0.00,BKN,SCT,0.00,WeatherDisplay:10.37,2013-08-27 23:23:00,
2013-08-27 19:28:00,79.1,67.7,30.00,NNE,13,0.0,0.0,68,0.00,BKN,SCT,0.00,WeatherDisplay:10.37,2013-08-27 23:28:00,
2013-08-27 19:33:00,78.9,67.9,30.01,East,92,0.0,0.0,69,0.00,BKN,SCT,0.00,WeatherDisplay:10.37,2013-08-27 23:33:00,
2013-08-27 19:38:00,78.7,67.7,30.01,SE,124,0.0,0.0,69,0.00,BKN,SCT,0.00,WeatherDisplay:10.37,2013-08-27 23:38:00,
2013-08-27 19:43:00,78.4,67.4,30.01,ESE,113,2.3,2.3,69,0.00,BKN,SCT,0.00,WeatherDisplay:10.37,2013-08-27 23:43:00,
2013-08-27 19:48:00,78.2,67.6,30.01,ESE,106,0.0,0.0,70,0.00,BKN,SCT,0.00,WeatherDisplay:10.37,2013-08-27 23:48:00,
2013-08-27 19:53:00,78.1,67.6,30.01,ESE,106,0.0,0.0,70,0.00,BKN,SCT,0.00,WeatherDisplay:10.37,2013-08-27 23:53:00,
2013-08-27 19:58:00,77.9,67.4,30.01,SSE,148,0.0,0.0,70,0.00,BKN,SCT,0.00,WeatherDisplay:10.37,2013-08-27 23:58:00,
2013-08-27 20:03:00,78.0,67.5,30.01,SSE,148,0.0,0.0,70,0.00,SCT,,0.00,WeatherDisplay:10.37,2013-08-28 00:03:00,
2013-08-27 20:08:00,77.8,67.7,30.01,ENE,65,1.1,0.0,71,0.00,SCT,,0.00,WeatherDisplay:10.37,2013-08-28 00:08:00,
2013-08-27 20:13:00,77.6,67.5,30.02,SW,233,3.5,3.5,71,0.00,SCT,,0.00,WeatherDisplay:10.37,2013-08-28 00:13:00,
2013-08-27 20:18:00,77.5,67.8,30.02,NNE,16,0.0,0.0,72,0.00,SCT,,0.00,WeatherDisplay:10.37,2013-08-28 00:18:00,
2013-08-27 20:23:00,77.2,67.5,30.02,SSW,196,1.6,1.6,72,0.00,SCT,,0.00,WeatherDisplay:10.37,2013-08-28 00:23:00,
2013-08-27 20:28:00,77.1,67.4,30.02,West,261,0.0,0.0,72,0.00,SCT,,0.00,WeatherDisplay:10.37,2013-08-28 00:28:00,
2013-08-27 20:33:00,77.1,67.4,30.02,West,261,0.0,0.0,72,0.00,SCT,,0.00,WeatherDisplay:10.37,2013-08-28 00:33:00,
2013-08-27 20:38:00,77.0,67.3,30.03,SSW,199,0.0,0.0,72,0.00,SCT,,0.00,WeatherDisplay:10.37,2013-08-28 00:38:00,
2013-08-27 20:43:00,77.0,67.3,30.03,SSW,199,0.0,0.0,72,0.00,SCT,,0.00,WeatherDisplay:10.37,2013-08-28 00:43:00,
2013-08-27 20:48:00,76.9,67.2,30.03,NE,49,2.3,2.3,72,0.00,SCT,,0.00,WeatherDisplay:10.37,2013-08-28 00:48:00,
2013-08-27 20:53:00,76.8,67.1,30.03,East,93,0.0,0.0,72,0.00,SCT,,0.00,WeatherDisplay:10.37,2013-08-28 00:53:00,
2013-08-27 20:58:00,76.7,67.4,30.03,East,93,0.0,0.0,73,0.00,SCT,,0.00,WeatherDisplay:10.37,2013-08-28 00:58:00,
2013-08-27 21:03:00,76.6,67.3,30.03,East,93,0.0,0.0,73,0.00,CLR,SCT,0.00,WeatherDisplay:10.37,2013-08-28 01:03:00,
2013-08-27 21:08:00,76.5,67.6,30.03,East,93,0.0,0.0,74,0.00,CLR,SCT,0.00,WeatherDisplay:10.37,2013-08-28 01:08:00,
2013-08-27 21:13:00,76.2,67.3,30.03,East,93,0.0,0.0,74,0.00,CLR,SCT,0.00,WeatherDisplay:10.37,2013-08-28 01:13:00,
2013-08-27 21:18:00,76.0,67.5,30.04,East,93,0.0,0.0,75,0.00,CLR,SCT,0.00,WeatherDisplay:10.37,2013-08-28 01:18:00,
2013-08-27 21:23:00,75.9,67.8,30.04,East,93,0.0,0.0,76,0.00,CLR,SCT,0.00,WeatherDisplay:10.37,2013-08-28 01:23:00,
2013-08-27 21:28:00,75.8,67.3,30.04,East,93,0.0,0.0,75,0.00,CLR,SCT,0.00,WeatherDisplay:10.37,2013-08-28 01:28:00,
2013-08-27 21:33:00,75.8,67.7,30.04,East,93,0.0,0.0,76,0.00,CLR,SCT,0.00,WeatherDisplay:10.37,2013-08-28 01:33:00,
2013-08-27 21:38:00,75.7,67.6,30.04,East,93,0.0,0.0,76,0.00,CLR,SCT,0.00,WeatherDisplay:10.37,2013-08-28 01:38:00,
2013-08-27 21:43:00,75.8,67.7,30.04,NNE,31,0.5,0.5,76,0.00,CLR,SCT,0.00,WeatherDisplay:10.37,2013-08-28 01:43:00,
2013-08-27 21:48:00,75.8,67.7,30.04,NNE,31,0.0,0.0,76,0.00,CLR,SCT,0.00,WeatherDisplay:10.37,2013-08-28 01:48:00,
2013-08-27 21:53:00,75.6,67.5,30.04,NNE,31,0.0,0.0,76,0.00,CLR,SCT,0.00,WeatherDisplay:10.37,2013-08-28 01:53:00,
2013-08-27 21:58:00,75.7,67.6,30.04,NE,49,1.1,1.1,76,0.00,CLR,SCT,0.00,WeatherDisplay:10.37,2013-08-28 01:58:00,
2013-08-27 22:03:00,75.6,67.5,30.05,ENE,72,0.0,0.0,76,0.00,CLR,SCT,0.00,WeatherDisplay:10.37,2013-08-28 02:03:00,
2013-08-27 22:08:00,75.5,67.4,30.04,ENE,65,1.1,0.0,76,0.00,CLR,SCT,0.00,WeatherDisplay:10.37,2013-08-28 02:08:00,
2013-08-27 22:13:00,75.1,67.4,30.04,NE,49,0.0,0.0,77,0.00,CLR,SCT,0.00,WeatherDisplay:10.37,2013-08-28 02:13:00,
2013-08-27 22:18:00,75.0,67.3,30.04,NNE,30,0.0,0.0,77,0.00,CLR,SCT,0.00,WeatherDisplay:10.37,2013-08-28 02:18:00,
2013-08-27 22:23:00,74.9,67.2,30.05,NNE,30,1.1,1.1,77,0.00,CLR,SCT,0.00,WeatherDisplay:10.37,2013-08-28 02:23:00,
2013-08-27 22:28:00,74.8,67.1,30.05,NNE,30,0.0,0.0,77,0.00,CLR,SCT,0.00,WeatherDisplay:10.37,2013-08-28 02:28:00,
2013-08-27 22:33:00,74.7,67.0,30.05,NNE,30,0.0,0.0,77,0.00,CLR,SCT,0.00,WeatherDisplay:10.37,2013-08-28 02:33:00,
2013-08-27 22:38:00,74.7,67.0,30.05,NNE,30,0.0,0.0,77,0.00,CLR,SCT,0.00,WeatherDisplay:10.37,2013-08-28 02:38:00,
2013-08-27 22:43:00,74.7,67.0,30.05,NNE,30,0.0,0.0,77,0.00,CLR,SCT,0.00,WeatherDisplay:10.37,2013-08-28 02:43:00,
2013-08-27 22:48:00,74.5,67.2,30.05,NNE,30,0.0,0.0,78,0.00,CLR,SCT,0.00,WeatherDisplay:10.37,2013-08-28 02:48:00,
2013-08-27 22:54:00,74.4,67.1,30.05,NNE,30,0.0,0.0,78,0.00,CLR,SCT,0.00,WeatherDisplay:10.37,2013-08-28 02:54:00,
2013-08-27 22:59:00,74.3,67.0,30.05,NNE,30,0.0,0.0,78,0.00,CLR,SCT,0.00,WeatherDisplay:10.37,2013-08-28 02:59:00,
2013-08-27 23:04:00,74.2,66.9,30.04,NNE,30,0.0,0.0,78,0.00,CLR,SCT,0.00,WeatherDisplay:10.37,2013-08-28 03:04:00,
2013-08-27 23:09:00,74.1,66.8,30.04,NNE,30,0.0,0.0,78,0.00,CLR,SCT,0.00,WeatherDisplay:10.37,2013-08-28 03:09:00,
2013-08-27 23:14:00,74.1,66.8,30.04,NNE,30,0.0,0.0,78,0.00,CLR,SCT,0.00,WeatherDisplay:10.37,2013-08-28 03:14:00,
2013-08-27 23:19:00,74.1,66.8,30.04,ENE,71,2.3,2.3,78,0.00,CLR,SCT,0.00,WeatherDisplay:10.37,2013-08-28 03:19:00,
2013-08-27 23:24:00,74.1,66.8,30.04,ENE,72,3.5,3.5,78,0.00,CLR,SCT,0.00,WeatherDisplay:10.37,2013-08-28 03:24:00,
2013-08-27 23:29:00,74.0,66.7,30.04,NE,47,1.1,1.1,78,0.00,CLR,SCT,0.00,WeatherDisplay:10.37,2013-08-28 03:29:00,
2013-08-27 23:34:00,74.0,66.7,30.04,East,85,0.0,0.0,78,0.00,CLR,SCT,0.00,WeatherDisplay:10.37,2013-08-28 03:34:00,
2013-08-27 23:39:00,74.0,66.7,30.03,ENE,61,2.3,2.3,78,0.00,CLR,SCT,0.00,WeatherDisplay:10.37,2013-08-28 03:39:00,
2013-08-27 23:44:00,74.0,66.7,30.03,ENE,61,0.0,0.0,78,0.00,CLR,SCT,0.00,WeatherDisplay:10.37,2013-08-28 03:44:00,
2013-08-27 23:49:00,73.9,66.6,30.03,ENE,61,0.0,0.0,78,0.00,CLR,SCT,0.00,WeatherDisplay:10.37,2013-08-28 03:49:00,
2013-08-27 23:54:00,73.8,66.5,30.03,ENE,61,0.0,0.0,78,0.00,CLR,SCT,0.00,WeatherDisplay:10.37,2013-08-28 03:54:00,
2013-08-27 23:59:00,73.6,66.4,30.03,ENE,66,2.3,2.3,78,0.00,CLR,SCT,0.00,WeatherDisplay:10.37,2013-08-28 03:59:00,